THORAD AGENA D DEB, 5690

Orbit data source: Space-Track

THORAD AGENA D DEB, 5690 is space debris in SSO originally from a launch on Wed, 08 Apr 1970 UTC launched from the Air Force Western Test Range (AFWTR). Debris objects in space refer to the collection of defunct objects orbiting the Earth. Examples of debris include non-operational satellites, rocket bodies, and fragments generated from explosions, collisions, or faulty payload assembly.

Loading next visibility...
Identifier
5690, 1970-025LV
Orbit
SSO
Country
Flag of USUS
Related business
Manufacturer
Unknown
Mission
Spacecraft
Bus & Motor
Unknown
Mass
Unknown
Launch date (UTC)
1970-04-08 (56 years ago)
Launch vehicle
Unknown
Launch site
Air Force Western Test Range (AFWTR)
Object type
Payload
Rocket body
Debris
Shape & HBR
Unknown shape, 0.1 m
Radar Cross Section
Medium (>0.1 m² and <1 m²)

Expand to show TLE details & history
Last TLE update: 2 days ago

TLE from 2 days ago
0 THORAD AGENA D DEB
1 05690U 70025LV  26207.31619678  .00000056  00000-0  15746-3 0  9999
2 05690 100.1916 223.7068 0048717 343.3998  29.8796 13.51632825771679
Epoch: 2026-07-26T07:35Z
TLE epoch observation values (Epoch: 2026-07-26T07:35:19.401Z)
Latitude
13.30848°
Longitude
163.43541°
Altitude
1,036.878 km
Speed
7.35 km/s
True Right ascension
14h 45m 07s
True Declination
13° 14' 04"
Sunlit
Object was in daylight at epoch
Visualization orbit readout
Latitude
Unknown
Longitude
Unknown
Altitude
Unknown
Speed
Unknown
Apparent Right ascension
Unknown
Apparent Declination
Unknown
Sunlit
N/A
Visualization observer readout
Local Sidereal Time
14:23:52
Azimuth
Unknown
Elevation
Unknown
Doppler factor
Unknown
Orbital elements
Apogee altitude
1,099.836 km
Perigee altitude
1,027.328 km
Semi-major axis
7,441.719 km
Eccentricity
0.00487
Inclination
100.1916°
RAAN
223.7068°
Arg. of periapsis
343.3998°
True anomaly
30.15919°
Mean anomaly
29.8796°
Eccentric anomaly
30.01925°
Mean motion
3.38091 °/min
Orbital period
106.48 mins
BSTAR
0.00015746

Documentation

Showing up to 5 results
|